HISPASAT 30W-4 (27528 NORAD) Tracking and Keplerian Element Data

This shows tracking and keplerian element data for the satellite.

Feedback or suggestion? Click here.




ElementValue
Catalog27528
NameHISPASAT 30W-4
Epoch Orbit7253
Epoch Day192.86160537
Epoch Year2022
RAAN86.5608
Inclination2.8627
Eccentricity0.0046064
Argument of Perigee89.068
Mean Anonmoly109.9386
Mean Motion0.989272
Decay Rate4.8E-07
L11 27528U 02044A 22192.86160537 .00000048 00000+0 00000+0 0 9996
L22 27528 2.8627 86.5608 0046064 89.0680 109.9386 0.98927200 72535



Live tracking and technical data element details for HISPASAT 30W-4 (NORAD 27528). HISPASAT 30W-4 can be tracked NOW for your location showing map with azimuth and elevation plus other details from your city location.







IsCatalogInMostPopularTable: catalog: 27528, numindb: 356
Update: records affected: 1



GetName: 27528 HISPASAT 30W-4

Hit Count: updated at: Wed, 15 Apr 2026 01:26:24 GMT